Overview Statistics Trail Chart Weather Telemetry Raw packets
 

This is the latest recevied weather packets stored in our database for station/object N7IGG. If no packets are shown the sender has not sent any weather packets the latest 10 day(s).

<< 45 46 47 48 49 50 51 >>
Time Temp. Humidity Pressure Rain* Wind** Luminosity Snow
1777863679 23.89° C 39% 1008.9 hPa 0 mm - 15 W/m² -
1777863376 24.44° C 38% 1009 hPa 0 mm - 18 W/m² -
1777863073 24.44° C 37% 1009 hPa 0 mm - 22 W/m² -
1777862771 25° C 38% 1009.1 hPa 0 mm - 23 W/m² -
1777862467 25.56° C 39% 1009.1 hPa 0 mm - 31 W/m² -
1777862164 25.56° C 37% 1008.9 hPa 0 mm - 35 W/m² -
1777861859 25.56° C 37% 1009 hPa 0 mm - 38 W/m² -
1777861556 26.11° C 36% 1009.1 hPa 0 mm - 44 W/m² -
1777861252 25.56° C 36% 1009.3 hPa 0 mm - 67 W/m² -
1777860950 26.67° C 37% 1009 hPa 0 mm - 77 W/m² -
1777860646 26.11° C 38% 1009.3 hPa 0 mm - 88 W/m² -
1777860343 26.67° C 39% 1009.4 hPa 0 mm - 103 W/m² -
1777860040 26.67° C 41% 1009.3 hPa 0 mm - 114 W/m² -
1777859736 26.11° C 41% 1009.2 hPa 0 mm - 120 W/m² -
1777859432 25.56° C 43% 1009.1 hPa 0 mm - 131 W/m² -
1777859129 23.89° C 50% 1009.4 hPa 0 mm - 132 W/m² -
1777858826 22.78° C 51% 1009.4 hPa 0 mm - 149 W/m² -
1777858524 26.67° C 42% 1009.5 hPa 0 mm - 171 W/m² -
1777858220 26.67° C 42% 1009.5 hPa 0 mm - 175 W/m² -
1777857918 26.11° C 43% 1009.4 hPa 0 mm - 186 W/m² -
1777857616 26.67° C 44% 1009.5 hPa 0 mm - 177 W/m² -
1777857312 25.56° C 45% 1009.6 hPa 0 mm - 219 W/m² -
1777857008 24.44° C 47% 1009.5 hPa 0 mm - 228 W/m² -
1777856704 25° C 48% 1009.4 hPa 0 mm - 242 W/m² -
1777856400 24.44° C 51% 1009.6 hPa 0 mm - 256 W/m² -

* Rain latest hour (hover to see other rain measurements)
** Current wind speed in m/s (hover to see current wind gust speed)